Wind_Speed
63 64 64 64 65 66 66 66 66 66 66 66 67 66 66 66 66 65 65 65 66 66 66 67 67 66 65 66 66 66 67 66 66 64 65 66 66 66 65 65 65 65 65
64 64 64 64 65 65 66 66 67 67 67 68 68 69 68 68 68 67 67 67 68 68 68 69 68 68 68 68 68 68 68 67 67 66 65 66 66 67 67 66 66 66 66
64 64 65 65 65 66 66 66 67 68 68 69 69 69 69 69 69 69 69 70 70 70 69 69 69 69 69 69 70 69 69 68 68 68 67 67 67 68 69 68 68 68 68
62 63 64 65 66 67 67 68 68 68 69 69 69 69 70 70 71 71 71 71 71 71 71 70 70 70 71 71 70 70 70 70 70 70 69 69 69 69 69 69 69 68 68
59 60 62 63 65 66 67 68 68 69 69 69 69 69 70 71 71 72 73 73 74 74 73 72 72 72 72 71 70 70 70 70 70 70 70 69 70 70 70 70 69 68 67
58 60 61 61 63 65 66 67 68 69 69 70 70 70 70 71 72 73 73 73 73 73 73 73 72 72 72 71 70 70 70 70 70 70 71 71 71 71 71 70 69 68 67
57 59 60 61 63 63 64 65 66 67 68 69 69 70 70 71 71 71 72 73 72 72 72 72 73 73 73 71 71 70 70 70 70 71 71 70 70 70 70 70 69 70 69
57 58 59 60 61 61 62 63 64 65 66 67 67 68 69 69 70 70 71 71 72 72 72 72 72 72 72 71 71 71 71 70 71 71 70 70 70 71 71 70 70 69 67
55 56 57 58 59 60 60 61 61 62 63 64 65 66 67 67 68 68 69 70 70 70 70 70 71 71 71 71 72 72 72 70 70 70 70 70 71 71 70 69 68 68 67
53 55 56 57 58 58 59 59 60 61 62 62 63 64 65 65 66 67 68 68 68 68 67 67 68 68 69 69 70 70 69 69 70 70 69 69 69 68 67 67 67 66 66
54 54 55 57 57 58 58 59 60 61 62 62 63 64 65 65 65 65 66 66 66 65 64 64 64 65 65 65 66 66 67 67 67 66 66 66 66 65 65 65 64 64 64
53 54 55 55 56 57 59 60 61 62 62 63 63 64 64 65 65 64 64 64 64 64 64 64 64 64 64 64 64 64 64 64 64 64 64 63 63 63 63 63 63 63 62
55 55 56 56 57 57 58 59 60 62 62 63 63 63 64 64 64 64 64 64 64 64 64 64 64 64 63 63 63 62 62 61 61 61 61 61 61 61 60 60 60 60 60
56 56 56 57 57 58 58 58 58 59 60 60 61 61 62 63 63 62 62 62 63 64 64 63 63 63 63 62 61 60 60 59 59 59 59 59 58 57 57 58 58 58 58
56 57 57 57 56 56 56 56 56 56 57 57 57 58 58 58 59 59 58 58 59 61 61 61 61 61 61 60 60 59 59 58 58 58 57 57 56 56 56 56 56 56 56
56 56 56 56 56 55 54 54 55 55 55 54 54 54 54 55 54 54 55 55 55 56 57 57 58 57 58 58 57 57 57 57 56 56 55 55 55 55 55 54 55 55 55
54 54 54 54 54 54 54 53 53 53 53 53 53 53 53 52 52 53 53 53 53 53 54 54 54 54 54 54 53 53 53 53 53 53 52 53 53 53 53 53 53 53 54
52 53 53 53 53 53 52 52 52 52 52 52 52 52 52 52 52 52 53 52 52 52 52 52 52 52 52 51 50 51 51 50 50 50 50 51 51 51 51 51 51 52 52
52 52 52 52 52 51 51 51 51 50 50 50 50 50 50 50 50 50 51 51 51 51 51 50 50 50 49 49 48 48 48 48 49 49 50 50 50 50 50 50 50 50 50
50 50 50 50 51 50 50 50 49 49 49 49 48 48 48 48 48 48 49 49 50 50 49 49 48 48 48 47 47 47 47 48 48 49 49 49 49 49 49 49 49 49 48
47 47 47 47 48 48 48 47 47 47 47 46 46 46 46 46 47 46 46 47 48 48 48 47 47 47 47 47 47 47 47 47 47 47 48 48 48 48 48 48 48 47 47
45 45 45 44 44 45 45 45 45 45 44 44 44 44 44 45 45 45 45 46 46 46 46 46 46 46 46 46 46 47 47 47 46 47 47 47 48 47 47 47 46 47 46
43 43 42 41 41 42 42 42 42 42 42 43 43 43 43 44 44 44 44 45 45 46 45 45 45 45 45 45 46 46 46 46 46 46 47 47 47 46 46 45 45 45 45
40 40 40 40 40 40 40 40 40 41 42 42 42 42 43 43 44 44 44 44 44 44 44 44 44 44 44 44 44 45 45 45 46 46 46 46 45 45 44 44 44 44 44
38 39 39 39 39 39 39 40 40 40 40 41 40 41 41 42 42 41 41 41 41 41 41 41 41 42 42 42 42 43 43 44 44 43 43 43 43 42 42 43 43 43 43
38 38 38 39 39 38 38 38 38 38 37 37 37 38 38 37 37 37 38 38 38 38 38 39 39 40 40 40 40 40 40 40 40 40 40 40 40 40 40 41 41 41 40
Wind_Direction
254 254 255 255 255 255 255 256 257 258 258 259 260 260 261 262 263 264 266 267 267 268 269 271 272 274 274 275 275 277 278 279 280 280 280 281 282 283 284 285 286 286 287
255 255 256 257 257 257 257 257 258 258 259 259 260 260 261 261 262 264 265 266 267 268 269 271 272 273 274 275 276 277 278 279 279 279 280 281 282 282 283 284 285 285 286
257 257 257 258 258 258 259 258 258 258 259 260 261 261 262 262 263 265 266 266 268 269 270 271 272 273 274 275 276 276 277 277 278 279 280 280 281 281 282 284 285 286 286
259 260 260 259 259 259 260 260 260 260 261 262 262 263 263 264 265 265 267 267 268 270 271 271 272 273 274 274 275 276 277 277 278 279 280 280 281 282 283 284 285 285 285
260 261 261 261 261 261 261 261 262 262 263 263 264 264 265 266 266 267 268 268 269 269 270 271 272 272 273 274 274 275 276 277 277 278 279 280 281 282 283 283 283 284 285
261 261 261 262 263 263 263 263 263 263 264 264 264 265 266 267 268 268 269 269 269 270 270 271 272 273 274 274 275 276 276 277 278 279 279 280 280 281 282 283 283 284 284
262 263 263 264 264 264 264 264 264 265 265 266 266 266 267 267 267 268 268 269 270 270 270 271 271 273 274 275 275 276 277 278 278 278 279 280 281 281 281 282 283 284 284
265 265 265 265 266 267 267 266 266 266 266 267 267 268 269 269 269 270 270 271 271 271 271 272 272 273 274 275 276 276 277 278 278 278 278 279 280 282 282 282 283 283 283
267 267 268 268 268 268 268 267 267 267 267 267 268 269 270 271 271 271 272 272 272 272 272 272 273 274 274 275 275 276 277 277 278 278 279 279 280 281 281 281 282 283 283
269 268 268 268 268 268 268 268 268 268 268 268 268 268 269 270 271 272 272 273 272 271 271 271 272 273 274 275 276 277 277 277 278 277 278 279 280 280 281 281 282 282 282
271 271 270 270 270 270 269 269 269 269 268 268 269 269 270 270 271 271 272 271 271 270 270 270 271 273 274 274 276 277 277 278 278 278 278 278 279 280 281 281 281 282 282
272 272 272 272 272 272 271 271 271 271 270 270 270 270 271 271 271 271 271 270 270 270 271 271 271 273 274 274 276 277 277 277 277 278 278 278 279 279 280 281 282 283 283
274 274 274 273 273 274 274 273 273 272 272 272 272 271 271 271 271 271 270 270 270 270 270 271 272 273 274 274 275 275 275 276 276 277 277 277 278 279 280 280 282 283 284
276 276 275 275 275 275 275 274 274 274 273 273 273 273 273 272 271 270 270 269 270 270 270 270 271 272 273 274 274 275 276 276 276 276 276 276 276 278 279 280 281 282 283
276 276 276 276 276 276 275 275 275 275 274 274 274 273 273 272 271 270 270 270 271 271 271 271 271 272 272 273 274 275 276 276 276 276 276 277 278 278 279 280 281 282 282
276 276 276 276 275 275 275 275 276 276 275 275 274 274 273 273 272 271 271 271 271 272 272 272 272 272 272 273 274 275 276 276 276 277 277 278 278 279 280 281 282 282 282
277 276 276 276 275 275 275 275 275 274 274 275 275 275 275 275 274 273 273 273 273 273 273 272 272 272 273 273 273 274 274 274 275 276 277 278 279 280 281 283 283 284 284
278 277 276 276 276 275 274 274 274 274 274 274 274 275 275 275 275 274 274 274 274 273 273 272 272 272 273 272 273 273 273 273 274 275 277 278 279 280 281 283 284 285 286
279 277 276 276 275 275 274 275 275 275 275 275 274 275 275 276 275 274 274 274 273 273 273 272 272 272 272 272 272 273 273 274 274 276 278 278 279 280 281 282 283 284 285
280 278 277 276 276 276 275 275 275 275 275 275 275 275 275 275 275 275 274 273 273 273 272 272 272 272 271 271 272 273 274 275 276 277 278 279 279 280 282 283 283 284 284
281 279 278 277 276 276 276 275 274 274 274 274 274 274 275 275 274 274 274 273 272 272 271 271 271 271 270 271 272 273 274 275 276 277 278 279 280 281 282 282 283 284 285
281 280 279 278 278 277 276 275 274 274 273 273 273 274 275 275 275 274 273 273 272 272 272 271 271 270 271 272 273 274 274 275 275 276 277 279 280 280 281 282 283 284 285
281 280 279 278 278 278 277 276 275 275 274 274 274 274 275 275 275 275 274 274 273 273 273 272 272 272 272 272 273 274 274 274 275 276 278 279 280 281 281 282 283 285 285
281 280 280 280 280 280 279 279 277 276 275 275 274 274 274 275 275 275 274 274 274 274 273 272 272 273 273 273 274 274 275 275 276 276 277 278 279 280 281 282 283 285 286
281 280 280 281 281 280 279 279 278 277 276 276 275 274 275 276 275 275 275 274 274 274 273 272 272 273 274 274 275 275 275 276 276 276 276 277 278 279 280 282 283 284 285
281 281 281 282 282 281 280 280 279 278 277 277 276 275 276 276 275 274 273 273 274 273 273 272 273 274 274 274 275 275 276 276 276 277 277 278 279 281 282 282 283 284 284
Height
5670 5671 5673 5674 5676 5678 5679 5680 5681 5682 5683 5684 5684 5685 5686 5686 5685 5685 5684 5684 5683 5683 5682 5681 5680 5678 5677 5676 5674 5671 5669 5667 5665 5665 5662 5659 5656 5653 5650 5646 5643 5640 5637
5654 5655 5657 5658 5660 5661 5662 5664 5664 5665 5666 5667 5667 5668 5668 5669 5668 5668 5668 5667 5666 5666 5665 5664 5663 5661 5660 5659 5657 5655 5653 5650 5648 5646 5645 5642 5639 5636 5633 5631 5627 5623 5620
5638 5639 5640 5642 5643 5644 5645 5646 5647 5648 5649 5649 5650 5650 5651 5651 5651 5651 5650 5649 5649 5648 5647 5646 5645 5644 5643 5641 5639 5637 5635 5633 5630 5628 5627 5625 5622 5619 5616 5613 5610 5606 5602
5622 5623 5624 5625 5627 5628 5628 5629 5630 5630 5631 5632 5632 5633 5633 5633 5633 5632 5631 5631 5631 5630 5630 5628 5627 5626 5625 5623 5621 5620 5618 5615 5613 5611 5609 5607 5604 5602 5598 5596 5592 5588 5585
5607 5608 5608 5609 5610 5610 5611 5612 5612 5612 5613 5613 5614 5614 5614 5614 5614 5613 5612 5612 5612 5612 5611 5610 5609 5607 5606 5604 5603 5601 5599 5597 5595 5593 5591 5589 5586 5583 5580 5577 5574 5571 5566
5592 5592 5592 5593 5593 5593 5594 5594 5594 5594 5594 5595 5595 5595 5595 5595 5595 5594 5593 5592 5592 5592 5591 5591 5590 5588 5587 5585 5584 5582 5581 5578 5577 5574 5572 5570 5568 5565 5562 5559 5555 5552 5549
5576 5576 5576 5576 5577 5577 5576 5576 5576 5576 5576 5576 5576 5576 5576 5576 5575 5574 5573 5572 5572 5572 5572 5571 5571 5570 5568 5567 5565 5563 5562 5560 5558 5556 5553 5551 5548 5546 5543 5541 5537 5533 5530
5560 5560 5559 5559 5559 5559 5559 5558 5558 5558 5558 5558 5557 5557 5557 5557 5556 5555 5554 5552 5552 5553 5552 5552 5551 5550 5549 5547 5546 5544 5543 5541 5539 5536 5534 5532 5529 5526 5523 5521 5517 5514 5511
5543 5543 5543 5542 5542 5541 5541 5541 5540 5540 5540 5540 5540 5539 5538 5538 5537 5536 5534 5533 5533 5533 5533 5532 5531 5531 5530 5528 5526 5525 5524 5522 5519 5517 5514 5512 5510 5507 5504 5501 5498 5495 5493
5527 5527 5526 5525 5524 5524 5523 5523 5522 5522 5521 5521 5521 5520 5519 5519 5518 5517 5515 5514 5514 5514 5514 5513 5512 5510 5509 5507 5506 5505 5504 5502 5500 5498 5495 5493 5491 5488 5485 5482 5479 5476 5473
5511 5510 5509 5508 5507 5506 5505 5504 5503 5503 5503 5503 5502 5502 5501 5500 5499 5498 5496 5495 5494 5494 5494 5493 5492 5491 5490 5488 5487 5486 5484 5482 5480 5478 5477 5474 5472 5470 5467 5464 5460 5457 5454
5494 5493 5492 5490 5489 5487 5486 5485 5484 5484 5483 5483 5483 5482 5481 5481 5480 5478 5477 5475 5475 5474 5475 5474 5473 5472 5471 5469 5468 5466 5465 5463 5461 5460 5458 5456 5454 5452 5449 5446 5443 5439 5436
5477 5476 5475 5473 5471 5470 5468 5467 5466 5465 5464 5464 5463 5463 5462 5461 5460 5459 5458 5457 5456 5456 5455 5455 5454 5453 5452 5451 5449 5448 5446 5445 5443 5442 5440 5439 5436 5434 5432 5429 5426 5423 5419
5460 5459 5457 5455 5454 5452 5450 5449 5447 5446 5445 5444 5444 5443 5442 5442 5441 5440 5439 5438 5437 5436 5436 5436 5435 5435 5433 5432 5431 5430 5429 5427 5426 5424 5423 5421 5419 5417 5415 5412 5410 5407 5403
5442 5440 5439 5438 5436 5434 5433 5431 5430 5428 5427 5426 5425 5424 5423 5423 5422 5421 5420 5419 5419 5418 5417 5417 5417 5416 5415 5415 5414 5412 5411 5410 5409 5407 5406 5404 5402 5400 5398 5396 5393 5390 5387
5423 5422 5420 5419 5418 5416 5415 5414 5412 5411 5410 5408 5407 5406 5405 5405 5404 5403 5402 5402 5401 5400 5399 5399 5399 5398 5398 5397 5397 5396 5395 5393 5392 5391 5389 5388 5386 5384 5382 5379 5377 5374 5371
5405 5404 5402 5401 5400 5398 5397 5396 5395 5394 5393 5391 5391 5389 5388 5388 5387 5386 5386 5385 5384 5383 5382 5382 5382 5381 5381 5380 5380 5379 5378 5377 5376 5374 5373 5372 5370 5368 5366 5363 5361 5358 5355
5387 5385 5384 5383 5382 5380 5380 5378 5377 5377 5376 5375 5374 5373 5372 5371 5370 5370 5369 5368 5367 5367 5366 5366 5365 5365 5365 5364 5364 5363 5362 5361 5360 5359 5358 5356 5354 5352 5350 5348 5345 5342 5339
5369 5368 5366 5365 5364 5363 5362 5361 5360 5359 5359 5358 5357 5357 5355 5354 5353 5353 5352 5352 5351 5351 5350 5350 5350 5349 5349 5349 5348 5347 5347 5346 5345 5344 5342 5341 5339 5337 5335 5333 5330 5328 5325
5352 5350 5349 5348 5347 5346 5345 5344 5343 5343 5342 5341 5341 5340 5339 5338 5337 5337 5336 5335 5335 5335 5335 5334 5334 5334 5334 5333 5333 5332 5332 5331 5330 5329 5327 5326 5324 5322 5320 5318 5316 5313 5311
5335 5334 5332 5331 5330 5330 5328 5328 5327 5326 5326 5325 5325 5324 5323 5322 5322 5321 5320 5320 5319 5319 5319 5319 5319 5319 5318 5318 5318 5317 5317 5316 5315 5314 5313 5311 5309 5307 5306 5304 5302 5299 5297
5320 5318 5317 5316 5315 5314 5313 5312 5311 5310 5310 5310 5309 5309 5308 5307 5307 5306 5305 5304 5304 5304 5304 5304 5304 5304 5303 5303 5303 5303 5302 5301 5300 5299 5298 5296 5295 5293 5291 5289 5288 5285 5283
5306 5304 5303 5302 5301 5300 5299 5297 5296 5296 5295 5295 5294 5294 5293 5293 5292 5291 5290 5290 5289 5289 5289 5289 5289 5289 5288 5288 5288 5287 5287 5286 5285 5284 5283 5282 5280 5279 5277 5276 5274 5271 5269
5292 5291 5290 5289 5287 5286 5285 5284 5282 5281 5280 5280 5279 5279 5279 5278 5277 5276 5276 5275 5275 5275 5274 5274 5274 5274 5274 5273 5273 5272 5272 5271 5270 5269 5268 5267 5266 5264 5263 5261 5260 5258 5255
5280 5279 5277 5276 5275 5273 5272 5270 5269 5267 5266 5265 5264 5264 5264 5263 5262 5262 5261 5261 5261 5260 5260 5260 5260 5259 5259 5259 5258 5258 5257 5256 5255 5254 5253 5253 5252 5250 5249 5247 5246 5244 5242
5268 5266 5265 5263 5262 5260 5259 5257 5255 5254 5252 5252 5251 5250 5250 5249 5248 5248 5248 5247 5247 5247 5246 5246 5246 5246 5245 5245 5244 5244 5243 5242 5241 5240 5240 5239 5238 5237 5235 5234 5232 5230 5228